Adana, Turkey

2:34 PM +03 on June 27, 2017 (GMT +0300)
Adana

Weather History for LTAF - March, 2013

Change the Weather History Date:

Wednesday, March 6, 2013

  Actual Average Record
Temperature  
Mean Temperature 50 °F -  
Max Temperature 60 °F 66 °F 78 °F (2002)
Min Temperature 39 °F 46 °F 39 °F (2013)
Degree Days  
Heating Degree Days 14    
Moisture  
Dew Point 21 °F    
Average Humidity 36    
Maximum Humidity 76    
Minimum Humidity 15    
Precipitation  
Precipitation 0.00 in 0.09 in - ()
Sea Level Pressure  
Sea Level Pressure 30.25 in    
Wind  
Wind Speed 12 mph ()    
Max Wind Speed 21 mph    
Max Gust Speed -    
Visibility 6.0 miles    
Events      
Averages and records for this station are not official NWS values.
T = Trace of Precipitation, MM = Missing Value Source: Averaged Metar Reports

Daily Weather History Graph

Daily Weather History Graph

Search for Another Location

Airport or City:

Trip Planner

Search our weather history database for the weather conditions in past years. The results will help you decide how hot, cold, wet, or windy it might be!

Date:

Astronomy

Mar. 06, 2013 Rise Set
Actual Time 6:02 AM EET 5:37 PM EET
Civil Twilight 5:36 AM EET 6:03 PM EET
Nautical Twilight 5:06 AM EET 6:33 PM EET
Astronomical Twilight 4:36 AM EET 7:03 PM EET
Moon 1:46 AM EET (3/6) 12:03 PM EET (3/6)
Length of Visible Light 12h 26m
Length of Day
11h 34m
Waning Crescent, 33% of the Moon is Illuminated
Mar 6
Waning Crescent
Mar 11
New
Mar 19
First Quarter
Mar 27
Full
Apr 3
Last Quarter

Hourly Weather History & Observations

Time (EET) Temp. Windchill Dew Point Humidity Pressure Visibility Wind Dir Wind Speed Gust Speed Precip Events Conditions
12:20 AM 44.6 °F 36.9 °F 17.6 °F 34% 30.18 in 6.2 mi NE 18.4 mph - N/A   Partly Cloudy
12:50 AM 46.4 °F 39.0 °F 17.6 °F 32% 30.21 in 6.2 mi NE 19.6 mph - N/A   Partly Cloudy
1:20 AM 44.6 °F 37.4 °F 17.6 °F 34% 30.21 in 6.2 mi NE 16.1 mph - N/A   Partly Cloudy
1:50 AM 44.6 °F 37.4 °F 17.6 °F 34% 30.21 in 6.2 mi NE 16.1 mph - N/A   Partly Cloudy
2:20 AM 44.6 °F 37.2 °F 17.6 °F 34% 30.21 in 6.2 mi NNE 17.3 mph - N/A   Partly Cloudy
2:50 AM 44.6 °F 37.4 °F 17.6 °F 34% 30.24 in 6.2 mi NNE 16.1 mph - N/A   Partly Cloudy
3:20 AM 44.6 °F 37.2 °F 17.6 °F 34% 30.24 in 6.2 mi NNE 17.3 mph - N/A   Partly Cloudy
3:50 AM 42.8 °F 35.8 °F 17.6 °F 36% 30.24 in 6.2 mi NE 13.8 mph - N/A   Partly Cloudy
4:20 AM 42.8 °F 34.8 °F 15.8 °F 34% 30.24 in 6.2 mi NE 17.3 mph - N/A   Partly Cloudy
4:50 AM 42.8 °F 34.0 °F 15.8 °F 34% 30.24 in 6.2 mi NE 20.7 mph - N/A   Partly Cloudy
5:20 AM 42.8 °F 34.0 °F 14.0 °F 31% 30.27 in 6.2 mi NE 20.7 mph - N/A   Partly Cloudy
5:50 AM 42.8 °F 34.5 °F 15.8 °F 34% 30.27 in 6.2 mi NE 18.4 mph - N/A   Partly Cloudy
6:20 AM 42.8 °F 35.8 °F 15.8 °F 34% 30.27 in 6.2 mi NE 13.8 mph - N/A   Partly Cloudy
6:50 AM 44.6 °F 37.4 °F 15.8 °F 31% 30.30 in 6.2 mi NE 16.1 mph - N/A   Partly Cloudy
7:20 AM 44.6 °F 37.2 °F 14.0 °F 29% 30.30 in - NE 17.3 mph - N/A   Clear
7:50 AM 46.4 °F 39.5 °F 15.8 °F 29% 30.30 in - NE 17.3 mph - N/A   Clear
8:20 AM 48.2 °F - 15.8 °F 27% 30.30 in - NE 19.6 mph - N/A   Clear
8:50 AM 50.0 °F - 15.8 °F 26% 30.30 in - NE 18.4 mph - N/A   Clear
9:20 AM 51.8 °F - 15.8 °F 24% 30.30 in - NNE 17.3 mph - N/A   Clear
9:50 AM 51.8 °F - 15.8 °F 24% 30.30 in - NNE 18.4 mph - N/A   Clear
10:20 AM 53.6 °F - 14.0 °F 21% 30.30 in - NNE 17.3 mph - N/A   Clear
10:50 AM 53.6 °F - 14.0 °F 21% 30.30 in - NE 13.8 mph - N/A   Clear
11:20 AM 55.4 °F - 17.6 °F 23% 30.30 in - North 11.5 mph - N/A   Clear
11:50 AM 57.2 °F - 15.8 °F 20% 30.27 in - North 10.4 mph - N/A   Clear
12:20 PM 57.2 °F - 15.8 °F 20% 30.27 in - North 12.7 mph - N/A   Clear
12:50 PM 57.2 °F - 17.6 °F 21% 30.24 in - Variable 4.6 mph - N/A   Clear
1:20 PM 59.0 °F - 17.6 °F 20% 30.24 in - NNW 9.2 mph - N/A   Clear
1:50 PM 59.0 °F - 14.0 °F 17% 30.24 in - Variable 3.5 mph - N/A   Clear
2:20 PM 60.8 °F - 15.8 °F 17% 30.21 in - Variable 2.3 mph - N/A   Clear
2:50 PM 60.8 °F - 14.0 °F 16% 30.21 in - NNE 4.6 mph - N/A   Clear
3:20 PM 60.8 °F - 15.8 °F 17% 30.21 in - South 4.6 mph - N/A   Clear
3:50 PM 60.8 °F - 12.2 °F 15% 30.21 in - Variable 3.5 mph - N/A   Clear
4:20 PM 59.0 °F - 17.6 °F 20% 30.21 in - West 5.8 mph - N/A   Clear
4:50 PM 57.2 °F - 24.8 °F 29% 30.21 in - West 9.2 mph - N/A   Clear
5:20 PM 55.4 °F - 26.6 °F 33% 30.21 in - WSW 9.2 mph - N/A   Clear
5:50 PM 51.8 °F - 30.2 °F 44% 30.24 in - WSW 9.2 mph - N/A   Clear
6:20 PM 51.8 °F - 32.0 °F 47% 30.24 in - WSW 9.2 mph - N/A   Clear
6:50 PM 48.2 °F - 32.0 °F 54% 30.24 in - WSW 3.5 mph - N/A   Clear
7:20 PM 50.0 °F - 32.0 °F 50% 30.24 in - Variable 3.5 mph - N/A   Clear
7:50 PM 46.4 °F 43.5 °F 33.8 °F 62% 30.24 in - South 5.8 mph - N/A   Clear
8:20 PM 46.4 °F - 33.8 °F 62% 30.24 in - Calm Calm - N/A   Clear
8:50 PM 44.6 °F - 33.8 °F 66% 30.27 in - ESE 2.3 mph - N/A   Clear
9:20 PM 44.6 °F 42.2 °F 30.2 °F 57% 30.27 in - East 4.6 mph - N/A   Clear
9:50 PM 41.0 °F 39.0 °F 32.0 °F 70% 30.27 in 3.7 mi South 3.5 mph - N/A   Unknown
10:20 PM 41.0 °F 39.0 °F 33.8 °F 76% 30.27 in - South 3.5 mph - N/A   Clear
10:50 PM 41.0 °F - 32.0 °F 70% 30.27 in - Variable 1.2 mph - N/A   Clear
11:20 PM 41.0 °F - 33.8 °F 76% 30.27 in - Variable 2.3 mph - N/A   Clear
11:50 PM 39.2 °F - 32.0 °F 75% 30.27 in - Variable 2.3 mph - N/A   Clear